Location: Caracas
(10.5033°N, 66.8422°W)
Time: 04:00:26
(UTC-04:00)

Vanguard 3 - All Passes

Search period start: 25 June 2018 00:00
Search period end: 05 July 2018 00:00
Orbit: 508 x 3264 km, 33.3° (Epoch: 24 June)

Date Brightness Start Highest point End Pass type
(mag) Time Alt. Az. Time Alt. Az. Time Alt. Az.
25 Jun - 00:53:24 10° WNW 00:55:31 14° NNW 00:57:47 10° NNE night (unlit)
25 Jun - 05:19:27 10° NNW 05:24:48 19° NNE 05:32:16 10° ENE visible
25 Jun - 07:29:15 10° NW 07:39:20 56° NE 07:56:14 10° ESE daylight
25 Jun - 09:41:25 10° WNW 09:55:02 65° SW 10:14:42 10° SE daylight
25 Jun - 11:59:03 10° W 12:12:54 27° SSW 12:28:03 10° SSE daylight
25 Jun - 21:26:00 10° SSW 21:30:08 20° SSE 21:33:19 10° ESE visible
25 Jun - 23:38:07 10° W 23:41:48 34° NNW 23:45:11 10° NE night (unlit)
26 Jun - 06:16:19 10° NNW 06:24:03 34° NNE 06:36:36 10° E daylight
26 Jun - 08:27:04 10° NW 08:38:36 90° SSW 08:57:33 10° SE daylight
26 Jun - 10:41:24 10° W 10:55:23 40° SW 11:13:14 10° SSE daylight
26 Jun - 13:06:08 10° SW 13:14:42 14° SSW 13:23:16 10° S daylight
26 Jun - 20:13:28 10° S 20:15:40 12° SSE 20:17:35 10° SE visible
26 Jun - 22:23:26 10° SW 22:28:26 75° SSE 22:32:09 10° ENE night (unlit)
27 Jun - 00:39:44 10° NNW 00:40:06 10° NNW 00:40:29 10° NNW night (unlit)
27 Jun - 05:04:05 10° NNW 05:09:07 19° NNE 05:16:10 10° ENE visible
27 Jun - 07:13:34 10° NW 07:22:57 62° NE 07:39:18 10° ESE daylight
27 Jun - 09:25:47 10° WNW 09:38:22 57° SW 09:57:14 10° SE daylight
27 Jun - 11:44:03 10° WSW 11:56:29 23° SSW 12:10:26 10° SSE daylight
27 Jun - 21:09:06 10° SSW 21:14:43 31° SSE 21:18:35 10° E visible
27 Jun - 23:22:45 10° W 23:26:17 25° NNW 23:29:23 10° NNE night (unlit)
28 Jun - 06:00:45 10° NNW 06:08:00 37° NE 06:20:05 10° E daylight
28 Jun - 08:11:26 10° WNW 08:22:05 80° SW 08:40:14 10° SE daylight
28 Jun - 10:26:05 10° W 10:38:52 34° SSW 10:55:36 10° SSE daylight
28 Jun - 12:52:59 10° SW 12:58:48 12° SSW 13:04:41 10° S daylight
28 Jun - 19:55:02 10° SSW 20:00:17 18° SSE 20:04:07 10° ESE visible
28 Jun - 22:07:22 10° WSW 22:12:56 75° NW 22:16:46 10° NE visible
29 Jun - 04:48:38 10° NNW 04:53:24 19° NNE 05:00:08 10° ENE visible
29 Jun - 06:57:58 10° NW 07:06:38 69° NE 07:22:16 10° ESE daylight
29 Jun - 09:10:19 10° WNW 09:21:54 49° SSW 09:39:38 10° SE daylight
29 Jun - 11:29:28 10° WSW 11:40:16 19° SSW 11:52:32 10° S daylight
29 Jun - 18:41:48 10° S 18:45:05 12° SSE 18:47:52 10° SE daylight
29 Jun - 20:52:18 10° SW 20:59:14 46° SSE 21:03:36 10° ENE visible
29 Jun - 23:07:28 10° W 23:10:45 19° NNW 23:13:32 10° NNE night (unlit)
30 Jun - 05:45:11 10° NW 05:51:58 40° NE 06:03:32 10° E visible
30 Jun - 07:55:55 10° WNW 08:05:43 70° SSW 08:22:48 10° SE daylight
30 Jun - 10:11:02 10° W 10:22:32 28° SSW 10:37:45 10° SSE daylight
30 Jun - 19:37:25 10° SSW 19:44:51 26° SSE 19:49:42 10° E visible
30 Jun - 21:51:19 10° WSW 21:57:21 54° NW 22:01:19 10° NE visible
01 Jul - 04:33:07 10° NNW 04:37:41 20° NNE 04:44:10 10° ENE visible
01 Jul - 06:42:26 10° NW 06:50:25 79° NE 07:05:12 10° ESE daylight
01 Jul - 08:55:02 10° W 09:05:36 41° SSW 09:21:53 10° SSE daylight
01 Jul - 11:15:25 10° SW 11:24:16 16° SSW 11:34:15 10° S daylight
01 Jul - 18:22:46 10° SSW 18:29:38 18° SSE 18:34:40 10° ESE daylight
01 Jul - 20:35:34 10° SW 20:43:42 65° SSE 20:48:27 10° ENE visible
01 Jul - 22:52:15 10° WNW 22:55:10 16° NNW 22:57:39 10° N visible
02 Jul - 05:29:39 10° NW 05:35:58 45° NE 05:46:59 10° ESE visible
02 Jul - 07:40:31 10° WNW 07:49:31 59° SSW 08:05:16 10° SE daylight
02 Jul - 09:56:18 10° WSW 10:06:25 23° SSW 10:19:41 10° SSE daylight
02 Jul - 17:08:51 10° S 17:13:31 12° SSE 17:17:29 10° SE daylight
02 Jul - 19:19:59 10° SW 19:29:18 37° SSE 19:34:55 10° E visible
02 Jul - 21:35:17 10° WSW 21:41:41 42° NW 21:45:51 10° NE visible
03 Jul - 04:17:35 10° NNW 04:21:57 22° NE 04:28:14 10° E visible
03 Jul - 06:26:58 10° WNW 06:34:20 89° SW 06:48:04 10° SE daylight
03 Jul - 08:39:58 10° W 08:49:30 33° SSW 09:03:59 10° SSE daylight
03 Jul - 11:02:16 10° SW 11:08:28 13° SSW 11:15:18 10° S daylight
03 Jul - 18:04:34 10° SSW 18:14:06 24° SSE 18:20:26 10° ESE daylight
03 Jul - 20:18:51 10° SW 20:28:02 86° SSE 20:33:12 10° ENE visible
03 Jul - 22:37:05 10° WNW 22:39:35 13° NNW 22:41:44 10° N visible
04 Jul - 05:14:09 10° NW 05:20:01 52° NE 05:30:25 10° ESE visible
04 Jul - 07:25:16 10° WNW 07:33:28 48° SSW 07:47:40 10° SE daylight
04 Jul - 09:42:00 10° WSW 09:50:28 19° SSW 10:01:18 10° SSE daylight
04 Jul - 16:49:28 10° SSW 16:57:58 17° SSE 17:04:25 10° ESE daylight
04 Jul - 19:02:38 10° SW 19:13:40 49° SSE 19:19:54 10° ENE visible
04 Jul - 21:19:14 10° W 21:25:59 35° NW 21:30:19 10° NNE visible
